[[{"header":{"parameterUnit":"m.s-1","parameterCategory":1,"la1":30.2991,"la2":30.254,"lo1":-89.0895,"lo2":-89.0444,"dy":0.0017,"dx":0.0017,"nx":28,"ny":28,"refTime":"2024-04-08T09:00:00:Z","depth":0,"parameterNumber":2,"parameterNumberName":"U-component_of_WINDS"},"data":[0,0,0,0,0,0,0,0,0,0,0,0,0,0,0,0,0,0,0,0,0,0,0,0,0,0,0,0,0,0,0,0,0,0,0,0,0,0,0,0,0,0,0,0,0,0,0,0,0,0,0,0,0,0,0,0,0,0,-5.7457,-5.746,0,-5.7678,-5.768,-5.7683,-5.7714,-5.7712,-5.771,-5.7708,-5.7934,-5.7942,-5.795,0,0,0,0,0,0,0,0,0,0,0,0,0,-5.7065,-5.7072,-5.7457,-5.746,-5.7463,-5.7677,-5.768,-5.7683,-5.7715,-5.7712,-5.771,-5.7707,-5.7932,-5.7941,-5.7951,0,0,0,0,0,0,0,0,0,0,0,0,0,-5.7255,-5.7074,-5.7457,-5.7504,-5.7511,-5.7677,-5.768,-5.7684,-5.7715,-5.7712,-5.7709,-5.7706,-5.7929,-5.794,-5.7952,-5.8086,0,0,-5.7988,-5.7993,0,0,0,0,0,0,0,0,-5.7244,-5.727,-5.7494,-5.7501,-5.7509,-5.7665,-5.7625,-5.7819,-5.7716,-5.7637,-5.7708,-5.7705,-5.7847,-5.7866,-5.7914,-5.8097,-5.8106,-5.7989,-5.7996,-5.8002,-5.8005,0,0,0,0,0,0,0,-5.7231,-5.726,-5.7544,-5.7498,-5.7506,-5.7515,-5.7539,-5.7662,-5.7757,-5.7644,-5.7647,-5.7673,-5.7851,-5.7902,-5.7919,-5.811,-5.7989,-5.7999,-5.8007,-5.8011,-5.8414,-5.8418,0,0,0,0,0,0,-5.7209,-5.7249,-5.7537,-5.7551,-5.7366,-5.7524,-5.7551,-5.7618,-5.7756,-5.7774,-5.7675,-5.7673,-5.7883,-5.7905,-5.7927,-5.8092,-5.8001,-5.8013,-5.8019,-5.8411,-5.8415,-5.8419,0,0,0,0,0,0,-5.7201,-5.7235,-5.7528,-5.7401,-5.7439,-5.7534,-5.761,-5.7624,-5.7676,-5.7779,-5.7796,-5.771,-5.7882,-5.7911,-5.8046,-5.8101,-5.8018,-5.8029,-5.8407,-5.8412,-5.8417,-5.8424,0,0,0,0,0,0,-5.7189,-5.7231,-5.7283,-5.7402,-5.7446,-5.7643,-5.7613,-5.7631,-5.7696,-5.7696,-5.7816,-5.7833,-5.7882,-5.8029,-5.8058,-5.8116,-5.8038,-5.8402,-5.8409,-5.8415,-5.8419,-5.8429,-5.8437,0,0,0,0,0,-5.7175,-5.7276,-5.7285,-5.732,-5.7512,-5.7646,-5.7671,-5.7725,-5.77,-5.7753,-5.7819,-5.7829,-5.8091,-5.8042,-5.8076,-5.8138,-5.8399,-5.8407,-5.8415,-5.8415,-5.8427,-5.8437,0,0,0,0,0,0,-5.716,-5.7292,-5.7304,-5.7446,-5.7535,-5.7651,-5.7719,-5.7736,-5.7833,-5.7829,-5.7892,-5.7919,-5.8051,-5.8109,-5.8052,-5.8275,-5.8243,-5.8258,-5.8232,-5.8244,-5.8252,-5.8234,-5.8048,0,0,0,0,0,-5.7173,-5.7271,-5.7382,-5.7497,-5.7541,-5.7622,-5.7683,-5.7717,-5.7811,-5.7848,-5.7925,-5.8016,-5.8119,-5.8185,-5.8286,-5.8429,-5.8456,-5.8489,-5.8498,-5.8505,-5.8516,-5.8596,-5.8611,-5.8445,-5.8445,-5.8445,0,0,-5.7202,-5.7286,-5.7344,-5.7496,-5.7568,-5.7668,-5.7653,-5.776,-5.7834,-5.7865,-5.7996,-5.8057,-5.8163,-5.8303,-5.8369,-5.8355,-5.8568,-5.8515,-5.852,-5.8527,-5.8605,-5.8621,-5.8635,-5.8451,-5.845,-5.8449,0,0,-5.7303,-5.7378,-5.7481,-5.7555,-5.7665,-5.7719,-5.7744,-5.7859,-5.7899,-5.8034,-5.8058,-5.8149,-5.8325,-5.8399,-5.846,-5.8593,-5.8606,-5.8625,-5.867,-5.8747,-5.876,-5.8772,-5.8817,-5.8833,-5.8637,-5.8637,-5.8637,0,-5.7324,-5.7475,-5.7532,-5.7638,-5.7704,-5.7737,-5.7842,-5.7911,-5.8049,-5.8093,-5.8077,-5.8299,-5.8373,-5.853,-5.8563,-5.8612,-5.8642,-5.8609,-5.8754,-5.8766,-5.8778,-5.8822,-5.8839,-5.8638,-5.8638,-5.8638,-5.8637,0,-5.7494,-5.7599,-5.7669,-5.7801,-5.7876,-5.7981,-5.8054,-5.8123,-5.8152,-5.8208,-5.8344,-5.8435,-5.8554,-5.8595,-5.8624,-5.8757,-5.8745,-5.8741,-5.8709,-5.8794,-5.8836,-5.8854,-5.864,-5.8639,-5.8639,-5.8639,0,0,-5.7588,-5.7752,-5.7777,-5.7837,-5.7963,-5.8045,-5.8152,-5.8269,-5.8326,-5.8421,-5.8512,-5.8661,-5.8658,-5.8728,-5.8766,-5.8834,-5.8932,-5.8822,-5.8825,-5.8836,-5.9083,-5.9082,-5.9101,-5.8943,-5.8946,-5.8949,-5.9073,0,-5.7702,-5.7893,-5.7949,-5.8109,-5.8206,-5.8241,-5.8335,-5.8422,-5.8479,-5.857,-5.8633,-5.8736,-5.8726,-5.8768,-5.8837,-5.8905,-5.8981,-5.8897,-5.9026,-5.903,-5.8995,-5.9124,-5.9124,-5.9236,-5.909,-5.9093,-5.9095,0,-5.786,-5.7957,-5.8127,-5.8241,-5.8284,-5.8366,-5.8478,-5.8565,-5.8666,-5.8702,-5.8781,-5.8814,-5.8927,-5.8893,-5.905,-5.8991,-5.9049,-5.909,-5.9096,-5.9107,-5.9065,-5.9135,-5.9274,-5.9289,-5.9122,-5.912,-5.9118,0,-5.7908,-5.8083,-5.8207,-5.8258,-5.8394,-5.8451,-5.8511,-5.8609,-5.8675,-5.8774,-5.8818,-5.8929,-5.8989,-5.9074,-5.9136,-5.9106,-5.9288,-5.9259,-5.932,-5.9319,-5.9354,-5.935,-5.95,-5.9396,-5.9396,-5.9396,-5.9395,0,-5.8027,-5.8129,-5.823,-5.8306,-5.8422,-5.8486,-5.8599,-5.8661,-5.8748,-5.8837,-5.8876,-5.8958,-5.9037,-5.9131,-5.9181,-5.9303,-5.933,-5.9362,-5.9374,-5.9357,-5.9352,-5.9392,-5.9385,-5.94,-5.9399,-5.9398,-5.9398,0,-5.8099,-5.8171,-5.8308,-5.8427,-5.8459,-5.8539,-5.8641,-5.8716,-5.8775,-5.8887,-5.8917,-5.901,-5.9122,-5.9194,-5.9337,-5.9371,-5.9504,-5.9514,-5.9469,-5.9474,-5.953,-5.9523,-5.9708,-5.9735,-5.9616,-5.9617,-5.9618,0,-5.8168,-5.8248,-5.8375,-5.8437,-5.8497,-5.8597,-5.8666,-5.8734,-5.8804,-5.8926,-5.8986,-5.9101,-5.9196,-5.9374,-5.9454,-5.9564,-5.9576,-5.9634,-5.9593,-5.9573,-5.9574,-5.9567,-5.9575,-5.9639,-5.964,-5.9641,-5.9641,0,-5.8284,-5.8316,-5.8412,-5.8523,-5.8603,-5.8694,-5.8784,-5.8833,-5.8917,-5.8993,-5.9108,-5.9182,-5.9329,-5.9442,-5.956,-5.9622,-5.9646,-5.9654,-5.9674,-5.9656,-5.9625,-5.964,-5.9484,-5.9649,-5.9648,-5.9647,-5.9647,-5.9647,-5.8355,-5.8427,-5.8527,-5.8634,-5.871,-5.8793,-5.887,-5.8939,-5.9036,-5.916,-5.9195,-5.9315,-5.9416,-5.9576,-5.9641,-5.9736,-5.9729,-5.9758,-5.9765,-5.977,-5.9769,-5.9613,-5.9759,-5.9759,-5.9758,-5.9758,-5.9758,0,-5.8469,-5.8537,-5.8635,-5.8759,-5.8844,-5.886,-5.8962,-5.9031,-5.9136,-5.9228,-5.9321,-5.9453,-5.9564,-5.9654,-5.9769,-5.9828,-5.9841,-5.9855,-5.985,-5.9863,-5.9771,-5.9741,-5.9842,-5.9842,-5.9842,-5.9842,-5.9842,-5.9842,-5.8539,-5.8661,-5.8705,-5.8865,-5.8933,-5.905,-5.9106,-5.9184,-5.9257,-5.9403,-5.9495,-5.9554,-5.9645,-5.9767,-5.9869,-5.9893,-5.9932,-5.9943,-5.9969,-5.9879,-5.987,-5.9861,-5.9833,-5.9952,-5.9952,-6.0053,-6.0054,-6.0055]},{"header":{"parameterUnit":"m.s-1","parameterCategory":1,"la1":30.2991,"la2":30.254,"lo1":-89.0895,"lo2":-89.0444,"dy":0.0017,"dx":0.0017,"nx":28,"ny":28,"refTime":"2024-04-08T09:00:00:Z","depth":0,"parameterNumber":3,"parameterNumberName":"V-component_of_WINDS"},"data":[0,0,0,0,0,0,0,0,0,0,0,0,0,0,0,0,0,0,0,0,0,0,0,0,0,0,0,0,0,0,0,0,0,0,0,0,0,0,0,0,0,0,0,0,0,0,0,0,0,0,0,0,0,0,0,0,0,0,3.1159,3.116,0,3.125,3.1251,3.1252,3.1267,3.1266,3.1265,3.1265,3.1353,3.1356,3.1359,0,0,0,0,0,0,0,0,0,0,0,0,0,3.0997,3.1,3.1159,3.1161,3.1162,3.1249,3.1251,3.1252,3.1267,3.1266,3.1265,3.1264,3.1352,3.1356,3.136,0,0,0,0,0,0,0,0,0,0,0,0,0,3.1075,3.1001,3.1159,3.118,3.1183,3.1249,3.1251,3.1252,3.1267,3.1266,3.1265,3.1264,3.1351,3.1356,3.136,3.1411,0,0,3.1374,3.1376,0,0,0,0,0,0,0,0,3.1071,3.1081,3.1176,3.1179,3.1182,3.1246,3.1226,3.1305,3.1267,3.1235,3.1265,3.1263,3.1318,3.1325,3.1345,3.1415,3.1419,3.1375,3.1377,3.1379,3.1381,0,0,0,0,0,0,0,3.1065,3.1077,3.1195,3.1177,3.1181,3.1184,3.1193,3.1241,3.1282,3.1238,3.1239,3.125,3.132,3.134,3.1347,3.1421,3.1374,3.1379,3.1381,3.1383,3.1538,3.1539,0,0,0,0,0,0,3.1057,3.1073,3.1192,3.1198,3.1123,3.1187,3.1198,3.1226,3.1281,3.1289,3.125,3.125,3.1333,3.1342,3.135,3.1414,3.1379,3.1384,3.1386,3.1537,3.1538,3.154,0,0,0,0,0,0,3.1053,3.1067,3.1188,3.1136,3.1151,3.1191,3.1223,3.1229,3.1249,3.1291,3.1298,3.1264,3.1332,3.1344,3.1396,3.1417,3.1386,3.139,3.1535,3.1537,3.1539,3.1542,0,0,0,0,0,0,3.1049,3.1066,3.1087,3.1136,3.1154,3.1234,3.1224,3.1231,3.1258,3.1258,3.1306,3.1313,3.1332,3.1389,3.1401,3.1423,3.1393,3.1533,3.1536,3.1538,3.154,3.1544,3.1547,0,0,0,0,0,3.1043,3.1083,3.1088,3.1102,3.1181,3.1235,3.1246,3.1268,3.1259,3.128,3.1307,3.1311,3.1413,3.1395,3.1408,3.1432,3.1532,3.1535,3.1538,3.1539,3.1543,3.1547,0,0,0,0,0,0,3.1034,3.109,3.1096,3.1153,3.119,3.1238,3.1265,3.1272,3.1311,3.1309,3.1335,3.1346,3.1397,3.1419,3.1398,3.1484,3.1472,3.1477,3.1468,3.1472,3.1476,3.1469,3.1397,0,0,0,0,0,3.1039,3.1079,3.1126,3.1172,3.119,3.1224,3.1249,3.1263,3.1301,3.1316,3.1347,3.1383,3.1423,3.1449,3.1488,3.1543,3.1554,3.1566,3.157,3.1572,3.1577,3.1608,3.1614,3.155,3.155,3.1549,0,0,3.1049,3.1085,3.1109,3.1171,3.1201,3.1242,3.1237,3.128,3.131,3.1323,3.1375,3.1398,3.144,3.1494,3.152,3.1515,3.1597,3.1576,3.1578,3.1581,3.1612,3.1618,3.1623,3.1552,3.1551,3.1551,0,0,3.1089,3.112,3.1162,3.1193,3.1238,3.1261,3.1271,3.1318,3.1335,3.1388,3.1398,3.1433,3.1502,3.1531,3.1555,3.1606,3.1611,3.1618,3.1636,3.1666,3.1671,3.1676,3.1694,3.17,3.1622,3.1622,3.1622,0,3.1096,3.1159,3.1183,3.1226,3.1253,3.1267,3.131,3.1338,3.1393,3.1411,3.1405,3.1492,3.152,3.1582,3.1595,3.1613,3.1625,3.1613,3.1668,3.1673,3.1678,3.1696,3.1703,3.1623,3.1623,3.1623,3.1623,0,3.1165,3.1208,3.1236,3.1291,3.1322,3.1364,3.1394,3.1421,3.1433,3.1456,3.1509,3.1544,3.1591,3.1607,3.1618,3.167,3.1666,3.1663,3.1652,3.1684,3.1702,3.1709,3.1624,3.1623,3.1623,3.1623,0,0,3.1202,3.127,3.128,3.1305,3.1357,3.139,3.1433,3.148,3.1503,3.154,3.1576,3.1634,3.1633,3.166,3.1674,3.1701,3.1739,3.1696,3.1697,3.1703,3.1799,3.1801,3.1808,3.1743,3.1744,3.1745,3.1795,0,3.1248,3.1327,3.135,3.1415,3.1456,3.1469,3.1507,3.1541,3.1564,3.16,3.1624,3.1665,3.166,3.1676,3.1703,3.1729,3.1759,3.1725,3.1776,3.1778,3.1766,3.1817,3.1819,3.1865,3.1802,3.1803,3.1804,0,3.1313,3.1353,3.1423,3.147,3.1487,3.1521,3.1566,3.16,3.164,3.1654,3.1684,3.1697,3.1741,3.1726,3.1787,3.1764,3.1786,3.1802,3.1804,3.181,3.1794,3.1825,3.188,3.1887,3.1815,3.1814,3.1813,0,3.1334,3.1405,3.1457,3.1477,3.1533,3.1556,3.158,3.1618,3.1645,3.1684,3.1701,3.1744,3.1767,3.18,3.1823,3.181,3.1882,3.1869,3.1895,3.1894,3.191,3.1909,3.197,3.1923,3.1923,3.1923,3.1922,0,3.1384,3.1426,3.1467,3.1498,3.1546,3.1571,3.1617,3.1642,3.1676,3.1712,3.1725,3.1758,3.1787,3.1823,3.1841,3.1889,3.19,3.1912,3.1916,3.1911,3.191,3.1927,3.1924,3.1924,3.1924,3.1924,3.1923,0,3.1416,3.1445,3.1502,3.1549,3.1562,3.1595,3.1636,3.1667,3.1689,3.1734,3.1746,3.1781,3.1825,3.1851,3.1906,3.1918,3.1972,3.1974,3.1959,3.1961,3.1985,3.1983,3.206,3.2071,3.2016,3.2016,3.2017,0,3.1446,3.1479,3.1531,3.1557,3.1581,3.1622,3.165,3.1675,3.1704,3.1751,3.1776,3.1821,3.1858,3.1927,3.1957,3.1999,3.2003,3.2027,3.201,3.2003,3.2004,3.2003,3.2006,3.203,3.2031,3.2031,3.2031,0,3.1497,3.151,3.155,3.1595,3.1628,3.1665,3.1701,3.1721,3.1752,3.1783,3.1829,3.1858,3.1915,3.1959,3.2003,3.2027,3.2034,3.2037,3.2045,3.2041,3.2031,3.2037,3.1968,3.2035,3.2035,3.2034,3.2034,3.2034,3.153,3.156,3.1602,3.1646,3.1676,3.1709,3.1741,3.1768,3.1807,3.1856,3.1868,3.1916,3.1954,3.2015,3.2039,3.2076,3.2072,3.2084,3.2087,3.209,3.2091,3.2024,3.2084,3.2084,3.2084,3.2084,3.2084,0,3.1583,3.161,3.165,3.1701,3.1736,3.1741,3.1781,3.1809,3.1852,3.1887,3.1924,3.1976,3.2019,3.2052,3.2096,3.2119,3.2124,3.213,3.2129,3.2134,3.2092,3.2081,3.2126,3.2126,3.2126,3.2126,3.2126,3.2125,3.1614,3.1666,3.1683,3.175,3.1777,3.1825,3.1847,3.1878,3.1907,3.1965,3.2001,3.2023,3.2057,3.2103,3.2143,3.2151,3.2167,3.2173,3.2182,3.2142,3.2137,3.2133,3.2123,3.2176,3.2176,3.2221,3.2222,3.2222]}]]